User: anonymous   Login
Location: Unspecified
(0.0000°N, 0.0000°E)
Time: 04:34:35
(UTC+00:00)
Language:

NORSAT 2 - Orbit

View from above orbital plane
View from above orbital plane
View from above satellite
View from above satellite

Ground track
Ground track

The orbit data is extracted from the following two-line orbital elements,

1 42828U 17042D   18292.62555219 +.00000250 +00000-0 +30618-4 0  9994
2 42828 097.5860 190.4064 0015204 140.0870 220.1470 14.91103118068882
Epoch (UTC): 19 October 2018 15:00:47
Eccentricity: 0.0015204
inclination: 97.5860°
perigee height: 584 km
apogee height: 605 km
right ascension of ascending node: 190.4064°
argument of perigee: 140.0870°
revolutions per day: 14.91103118
mean anomaly at epoch: 220.1470°
orbit number at epoch: 6888

The dashed part of the orbit path shows where the satellite is in the earth's shadow,  

DLR